Terminal Aerodrome Forecast
Issued by NWS

Home | Current Version | Previous Version | Graphics & Text | Print | Product List | Glossary On
Versions: 1 2 3 4 5 6 7 8 9 10 11 12 13 14 15 16 17 18 19 20 21 22 23 24 25 26 27 28
242
FTUS43 KLOT 202322
TAFMDW
TAF
KMDW 202322Z 2100/2206 10010KT P6SM BKN250
     FM210200 07004KT P6SM BKN200
     FM210800 07003KT P6SM SCT080 BKN100
     FM212000 06008KT P6SM BKN080
     FM220100 06004KT P6SM OVC050=

USA.gov is the U.S. government's official web portal to all federal, state and local government web resources and services.